CZ-4 DEB, 26207

Orbit data source: Space-Track

CZ-4 DEB, 26207 is space debris in SSO originally from a launch on Thu, 14 Oct 1999 UTC launched from the Taiyaun Space Center, China (TSC). Debris objects in space refer to the collection of defunct objects orbiting the Earth. Examples of debris include non-operational satellites, rocket bodies, and fragments generated from explosions, collisions, or faulty payload assembly.

Loading next visibility...
Identifier
26207, 1999-057CV
Orbit
SSO
Country
Flag of CNCN / PRC
Related business
Manufacturer
Unknown
Mission
Spacecraft
Bus & Motor
Unknown
Mass
Unknown
Launch date (UTC)
1999-10-14 (26 years ago)
Launch vehicle
Unknown
Launch site
Taiyaun Space Center, China (TSC)
Object type
Payload
Rocket body
Debris
Shape & HBR
Unknown shape, 0.1 m
Radar Cross Section
Small (<0.1 m²)

Expand to show TLE details & history
Last TLE update: 4 hours ago

TLE from 4 hours ago
0 CZ-4 DEB
1 26207U 99057CV  25304.86794623  .00017728  00000-0  22105-2 0  9993
2 26207  98.3879  45.4539 0064295  69.5992  53.5228 14.81013488349794
Epoch: 2025-10-31T20:49Z
TLE epoch observation values (Epoch: 2025-10-31T20:49:50.554Z)
Latitude
55.4786°
Longitude
-115.10273°
Altitude
608.751 km
Speed
7.575 km/s
True Right ascension
15h 51m 03s
True Declination
55° 18' 52"
Sunlit
Object was in daylight at epoch
Visualization orbit readout
Latitude
Unknown
Longitude
Unknown
Altitude
Unknown
Speed
Unknown
Apparent Right ascension
Unknown
Apparent Declination
Unknown
Sunlit
N/A
Visualization observer readout
Local Sidereal Time
20:30:52
Azimuth
Unknown
Elevation
Unknown
Doppler factor
Unknown
Orbital elements
Apogee altitude
668.204 km
Perigee altitude
578.174 km
Semi-major axis
7,001.326 km
Eccentricity
0.00643
Inclination
98.3879°
RAAN
45.4539°
Arg. of periapsis
69.5992°
True anomaly
54.11806°
Mean anomaly
53.5228°
Eccentric anomaly
53.82015°
Mean motion
3.70487 °/min
Orbital period
97.17 mins
BSTAR
0.0022105
Loading maneuver chart data...
Computing Atmospheric mass density...
Loading historical data...
Loading historical data...
Loading historical data...
Loading historical data...
Loading historical data...
Loading historical data...
Loading historical data...

Documentation

Showing up to 5 results
|